Weather in Brodnica

Poland     53°15′59″N   19°24′53″E
temp.,
°C
wind,
m/s
gust,
m/s
humid.,
%
clouds,
%
prec.,
mm/h
press.,
hPa
HPBL,
m
20 september, mon
mon2023:00+8n367898 0.0 1017199
02:00+8nne4872100 0.0 1018722
05:00+7nne4975100 0.0 1018735
08:00+8nne4871100 0.0 1019822
11:00+10nne6860100 0.0 10201273
14:00+12nne675733 0.0 10201178
17:00+12n676177 0.0 10201419
20:00+10nnw487133 0.1 1022616
21 september, tue
tue2123:00+6nw368322 0.0 1022119
02:00+6nw38885 0.0 1023175
05:00+6nw388794 0.0 1023182
08:00+9nw367564 0.0 1024284
11:00+13nnw465416 0.0 10241483
14:00+15nw664543 0.0 10241950
17:00+14nnw3748100 0.0 10241672
20:00+11nnw3661100 0.0 1024252
22 september, wed
wed2223:00+10nw4766100 0.0 1024481
02:00+9nw4773100 0.1 1024472
05:00+9nnw3788100 0.4 1023391
08:00+10nw368285 0.4 1023385
11:00+11nw3474100 0.0 1023583
14:00+12nnw3468100 0.0 1022836
17:00+13nnw3467100 0.2 1021793
20:00+11n1176100 0.3 102126
23 september, thu
thu2323:00+11w2277100 0.0 102046
02:00+10sw2584100 0.0 1018166
05:00+9sw379293 0.0 1016198
08:00+10wsw4991100 0.0 1014299
11:00+15wsw71065100 0.0 1011750
14:00+17wsw91256100 0.0 10091256
17:00+12wsw81484100 1.4 1006773
20:00+12wsw71488100 6.6 1004878
24 september, fri
fri2423:00+12w91482100 0.4 1002915
02:00+10w91487100 2.4 1002896
05:00+9wsw81586100 1.2 1001758
08:00+10w91888100 2.1 10001104
11:00+13wnw91766100 0.3 10011527
14:00+15wnw91353100 0.3 10031796
17:00+14w71365100 0.0 10031487
20:00+11sw51296100 1.9 1004748